RH
42 32 31 31 32 32 29 26 27 29 30 30 32 30 27 26 23 20 18 21 32 22 17 18 22 24 28 32 37 36 35 32 30 29 28 23 14 11 12 13 16 19 21
35 29 32 33 35 35 33 29 28 29 32 30 28 28 28 25 20 17 20 30 40 27 25 17 11 10 17 27 29 30 29 28 27 26 22 15 13 14 15 14 15 16 18
33 29 34 35 37 36 36 35 32 29 29 28 26 25 24 20 18 23 26 33 39 32 29 22 13 11 14 17 23 24 24 23 23 20 19 17 18 20 22 21 19 21 22
35 30 36 41 38 37 37 36 33 32 28 26 21 22 19 21 24 26 27 36 36 31 28 21 13 11 13 17 17 18 19 21 20 20 21 24 27 28 31 34 34 33 29
35 31 37 42 39 39 37 36 34 33 29 19 19 18 17 23 25 28 30 33 33 30 28 20 15 15 15 15 16 17 21 24 26 28 30 35 40 42 44 40 35 34 35
38 36 39 42 40 40 38 36 35 33 25 21 18 16 21 24 24 26 29 31 29 24 24 18 16 17 18 19 20 22 26 28 29 32 34 36 40 36 39 38 35 36 43
43 39 39 39 41 41 40 39 37 35 29 25 22 17 21 25 24 25 27 27 26 26 24 19 20 21 22 23 24 26 27 29 30 31 34 35 36 34 32 33 32 31 32
41 43 41 39 42 42 40 39 38 36 30 25 23 20 19 22 24 25 25 27 27 29 25 23 24 25 26 26 26 28 30 30 31 31 32 32 32 31 29 28 28 28 31
46 48 46 40 40 40 39 39 39 38 34 28 25 23 22 21 22 25 26 27 28 26 25 24 25 26 26 26 27 29 33 34 35 35 35 34 33 31 30 29 26 26 27
49 47 43 40 38 38 39 38 38 39 39 34 29 25 24 24 24 24 26 26 27 28 28 27 28 29 29 30 30 30 32 32 32 30 31 32 32 30 28 26 23 22 20
44 44 44 40 35 35 38 38 38 38 37 35 34 30 28 27 26 26 27 28 28 28 27 27 28 28 29 29 30 31 32 34 34 35 33 33 32 27 25 23 20 19 19
40 38 38 39 37 33 34 34 34 32 33 33 34 34 33 32 31 30 30 32 33 31 30 30 30 30 30 30 31 32 33 35 35 35 33 33 31 27 24 22 20 19 19
38 35 32 33 33 32 34 36 35 32 30 30 32 35 34 36 37 36 36 36 36 34 34 34 32 33 34 32 32 34 34 34 34 36 36 34 31 27 23 21 19 20 19
35 35 35 32 32 30 30 31 30 31 31 33 32 34 35 36 40 42 41 39 39 41 39 38 39 37 36 35 36 37 36 36 35 36 38 38 34 31 27 25 23 22 22
36 37 35 36 36 34 31 31 29 29 31 34 33 37 40 39 40 43 43 43 41 43 46 47 45 42 40 38 39 40 42 40 35 35 38 41 37 35 30 27 27 26 26
34 36 38 37 37 36 32 31 31 31 31 34 36 38 41 42 40 41 43 45 46 46 47 51 54 55 55 48 44 44 43 45 46 39 36 40 40 37 34 30 29 29 28
35 36 38 37 37 36 34 32 31 32 32 35 37 37 37 41 42 42 43 42 44 47 50 51 54 56 58 60 62 55 51 48 46 48 44 38 43 41 37 34 31 30 29
31 35 36 39 42 39 37 34 34 34 37 41 42 40 41 41 39 38 39 40 42 46 49 52 53 55 56 57 58 59 58 58 54 50 49 47 40 42 41 39 37 34 32
29 34 31 33 35 37 38 40 35 36 38 39 38 39 35 34 36 39 37 35 39 42 44 50 53 56 55 57 59 59 57 59 61 58 55 53 54 46 43 41 40 40 38
25 25 32 32 30 30 31 34 38 38 39 40 41 39 39 39 37 37 40 42 41 43 44 46 49 52 56 57 59 60 60 59 60 60 58 57 58 59 52 44 43 44 43
24 24 24 22 28 29 29 30 33 33 37 41 41 41 44 42 42 45 45 44 45 48 47 51 52 54 56 63 67 65 64 62 57 55 57 60 62 63 65 59 49 49 51
24 24 25 24 22 20 20 21 23 25 27 29 29 31 35 38 42 43 47 43 45 50 52 57 62 63 67 72 75 77 74 68 66 66 66 64 65 66 67 71 68 59 56
24 23 22 21 20 19 17 18 18 19 19 19 21 23 25 28 29 31 37 43 45 52 54 54 61 69 69 73 73 76 73 71 72 72 71 70 71 72 72 75 78 77 71
22 20 19 18 18 17 17 18 18 19 20 21 21 22 25 28 29 30 32 34 42 48 54 54 63 66 62 66 73 74 77 73 72 71 73 73 74 74 79 81 84 84 84
23 22 20 20 19 18 18 17 17 17 17 17 18 20 22 26 29 31 33 34 34 34 38 44 51 51 60 63 66 69 73 74 77 81 81 78 77 76 79 86 88 89 88
24 23 21 20 20 19 18 18 18 18 17 17 16 17 18 20 23 24 26 29 33 38 42 47 52 61 65 66 69 73 79 83 87 83 80 82 86 86 87 89 90 93 92